Regional Weather Roundup
Issued by NWS

Home | Current Version | Previous Version | Graphics & Text | Print | Product List | Glossary On
Versions: 1 2 3 4 5 6 7 8 9 10 11 12 13 14 15 16 17 18 19 20 21 22 23 24 25 26 27 28 29 30 31 32 33 34 35 36 37 38 39 40 41 42 43 44 45 46 47 48 49 50
000
ASUS43 KLOT 222104
RWRIL

ILLINOIS REGIONAL WEATHER ROUNDUP
NATIONAL WEATHER SERVICE CHICAGO/ROMEOVILLE IL
400 PM CDT SUN OCT 22 2017

NOTE: "FAIR" INDICATES FEW OR NO CLOUDS BELOW 12,000 FEET WITH NO
SIGNIFICANT WEATHER AND/OR OBSTRUCTIONS TO VISIBILITY.

* THESE STATIONS ARE NOT UNDER NWS QUALITY CONTROL. THEY ALSO MAY NOT
  REPORT WEATHER SUCH AS PRECIPITATION OR FOG.

ILZ001-002-007-009-015-016-024-222200-
NORTHWEST ILLINOIS

CITY           SKY/WX    TMP DP  RH WIND       PRES   REMARKS
MOLINE         LGT RAIN  54  49  83 CALM      30.06R
STERLING*      CLOUDY    53  50  89 NW6         N/A
SAVANNA*       LGT RAIN  53  49  87 N3        30.06R
$$

ILZ003-004-008-010-011-017-018-222200-
NORTH CENTRAL ILLINOIS

CITY           SKY/WX    TMP DP  RH WIND       PRES   REMARKS
ROCKFORD       LGT RAIN  51  49  92 N9        30.04R
FREEPORT*      CLOUDY    50  48  91 N3        30.05R
ROCHELLE*      LGT RAIN  51  49  93 N9        30.04R
$$

ILZ005-006-012>014-019>023-222200-
NORTHEAST ILLINOIS

CITY           SKY/WX    TMP DP  RH WIND       PRES   REMARKS
CHICAGO-OHARE  LGT RAIN  53  50  89 N15       30.01R FOG
CHICAGO-MIDWAY LGT RAIN  53  52  96 NW21G29   30.00R FOG
AURORA         LGT RAIN  52  50  93 N15       30.03R FOG
LANSING*       RAIN      66  64  91 SW12G21   29.97R
JOLIET*        RAIN      54  53  97 N12G18    30.01R
WAUKEGAN       LGT RAIN  51  50  96 NW8       30.01R FOG
DUPAGE AIRPORT LGT RAIN  51  50  96 N14G22    30.02R FOG
KANKAKEE*      DRIZZLE   56  55  95 NW14      30.00R
WHEELING       LGT RAIN  52  51  97 N14G26    30.03R FOG
NORTHERLY ISL    N/A     56  52  86 NW13        N/A
$$

LMZ740>746-222200-
SOUTHERN LAKE MICHIGAN

STATION/POSITION SKY/WX   TEMP    WIND        PRES    VSBY  WAVE
                          AIR SEA DIR/SP/G                  HT/PER
                          (F)     (DEG/KT/KT) (MB)    (MI)  (FT/S)
SOUTHERN BUOY              63 60  190/ 12/ 14 1013.1          3/ 5
WILMETTE HARBOR               57  320/ 21/ 27   N/A           4/ 4
HARRISON CRIB                     340/ 28/ 32   N/A
BURNHAM HARBOR             55     310/ 11/ 19   N/A
CALUMET HARBOR             67     210/ 13/ 20 1013.6R
BURNS HARBOR               71     210/ 20/ 26 1014.6R
MICHIGAN CITY              71     190/ 12/ 14   N/A
MICHIGAN CITY 6N           67 58  200/ 14/ 23   N/A           2/ 3
ST. JOSEPH                 67 60  210/ 10/ 14 1014.2S         3/ 4
$$

ILZ025>027-034>036-040-047-049-050-058-095>099-222200-
WEST-CENTRAL ILLINOIS

CITY           SKY/WX    TMP DP  RH WIND       PRES   REMARKS
QUINCY         LGT RAIN  54  49  83 NW9       30.07S
MACOMB*        RAIN      53  50  90 N3        30.09S
JACKSONVILLE*  CLOUDY    54  50  87 N10       30.07R
$$

ILZ028>032-037-038-041>044-048-051>054-059>061-222200-
CENTRAL ILLINOIS

CITY           SKY/WX    TMP DP  RH WIND       PRES   REMARKS
BLOOMINGTON    LGT RAIN  51  50  96 N23G30    30.04R FOG
DECATUR        LGT RAIN  55  53  93 NW20G25   30.02R FOG
PEORIA         CLOUDY    54  50  86 VRB3      30.05R
LACON*         DRIZZLE   52  51  95 N7        30.04R
LINCOLN*       CLOUDY    53  52  97 N9G17     30.05R
SPRINGFIELD    CLOUDY    55  52  89 N13       30.05S
TAYLORVILLE    RAIN      52  52  98 N22       30.04R
$$

ILZ033-039-045-046-055>057-062-063-222200-
EAST-CENTRAL ILLINOIS

CITY           SKY/WX    TMP DP  RH WIND       PRES   REMARKS
CHAMPAIGN      LGT RAIN  57  55  93 NW21G29   30.00R FOG
DANVILLE*      CLOUDY    68  63  83 SW5       29.95F
MATTOON        LGT RAIN  68  65  90 SW6       29.97R
PARIS*         CLOUDY    74  62  67 S9        29.98S
$$

ILZ079-100>102-222200-
SOUTHWEST ILLINOIS

CITY           SKY/WX    TMP DP  RH WIND       PRES   REMARKS
ALTON          CLOUDY    54  54 100 NW12      30.05R
CAHOKIA*       LGT RAIN  57  51  80 N17G29    30.04S
SPARTA*        DRIZZLE   56  55  96 NW12G21   30.02R
$$

ILZ064>066-069>071-074>076-080>082-084>086-088>090-092>094-222200-
SOUTH-CENTRAL ILLINOIS

CITY           SKY/WX    TMP DP  RH WIND       PRES   REMARKS
CARBONDALE     LGT RAIN  67  67 100 NW9       29.96S
EFFINGHAM*     DRIZZLE   68  66  94 W8        29.99R
MARION         CLOUDY    72  66  83 SW6       29.96F
MT. VERNON     CLOUDY    68  66  93 W6        29.97S
CENTRALIA*     RAIN      60  58  96 NW17      29.98S
SALEM*         RAIN      62  59  91 NW15G22   29.98F
METROPOLIS*    CLOUDY    75  63  64 S7        29.95F
$$

ILZ067-068-072-073-078-083-087-091-222200-
SOUTHEAST ILLINOIS

CITY           SKY/WX    TMP DP  RH WIND       PRES   REMARKS
LAWRENCEVILLE  CLOUDY    76  60  57 S17G25    29.99S
FLORA*         RAIN      73  64  72 S13G24    29.97S
FAIRFIELD*     CLOUDY    74  62  66 S6        29.95F
HARRISBURG*    CLOUDY    75  63  67 S14       29.96F
ROBINSON*      CLOUDY    75  60  59 S17G23    29.99S
CARMI*         CLOUDY    75  62  64 S12       29.96F
$$

ABBREVIATIONS USED IN REMARKS
   TC - TEMPERATURE IN CELSIUS
  WCI - WIND CHILL INDEX
   HX - HEAT INDEX
  VSB - VISIBILITY
$$




USA.gov is the U.S. government's official web portal to all federal, state and local government web resources and services.